Location: Newark
(55.1520°N, 2.9990°W)
Time: 04:23:26
(UTC+00:00)

N. Korean satellite - Pass Details

Date: 29 September 2020
Orbit: 453 x 505 km, 97.2° (Epoch: 21 October)

Event Time Altitude Azimuth Distance (km) Brightness Sun altitude
Rises 05:05:23 0° 22° (NNE) 2,597 10.8 -10.2°
Reaches altitude 10° 05:07:48 10° 37° (NE) 1,699 10.1 -9.9°
Maximum altitude 05:10:48 24° 93° (E) 1,060 9.3 -9.5°
Drops below altitude 10° 05:13:45 10° 148° (SSE) 1,662 9.6 -9.0°
Sets 05:16:04 0° 163° (SSE) 2,525 10.3 -8.7°
